Flag for Slovakia Weather past 2 weeks in Piešťany, Slovakia

Now
46 °F

Light rain. Mostly cloudy.


Feels Like: 39 °F
Forecast: 42 / 54 °F
Wind: 17 mph from Northwest

Location: Piestany

Current Time: Oct 22, 2014 at 10:20:32 AM

Latest Report: Oct 22, 2014 at 10:00 AM


Visibility: N/A

Pressure: 29.68 "Hg

Humidity: 82%

Dew point: 41 °F

Location of PiešťanyLocation

Historic Weather in Piešťany — Graph

°F

Piešťany temperature yesterday

Maximum temperature yesterday: 64 °F (at 3:30 PM)
Minimum temperature yesterday: 54 °F (at 4:00 AM)
Average temperature yesterday: 58 °F

Past Weeks' High & Low Weather Summary

 TemperatureHumidityPressure
High75 °F (Oct 12, 3:30 PM)100% (Oct 21, 10:00 AM)30.36 "Hg (Oct 21, 10:00 AM)
Low43 °F (Oct 19, 4:00 AM)50% (Oct 12, 4:00 PM)29.59 "Hg (Oct 22, 1:30 AM)
Average60 °F79%29.98 "Hg
* Reported Oct 7 9:00 AM — Oct 22 9:00 AM, Piešťany, Weather by CustomWeather, © 2014

Note: Actual official high and low records may vary slightly from our data, if they occured in-between our weather recording intervals... More about our weather records

Advertising

Piešťany weather history for previous 24 hours

 ConditionsComfort  
Time TempWeatherWind HumidityBarometerVisibility
9:00 AM
Oct 22
46 °FLight rain. Mostly cloudy.14 mph87%29.68 "HgN/A
8:30 AM46 °FLight rain. Mostly cloudy.14 mph87%29.68 "HgN/A
8:00 AM48 °FLight rain. Mostly cloudy.14 mph82%29.68 "HgN/A
7:30 AM48 °FLight rain. Mostly cloudy.14 mph82%29.65 "HgN/A
7:00 AM48 °FLight rain. Mostly cloudy.14 mph82%29.68 "HgN/A
6:30 AM50 °FLight rain. Mostly cloudy.14 mph76%29.68 "HgN/A
6:00 AM50 °FLight rain. Mostly cloudy.16 mph76%29.68 "HgN/A
5:30 AM52 °FLight rain. Overcast.20 mph72%29.68 "HgN/A
5:00 AM52 °FMostly cloudy.16 mph72%29.68 "HgN/A
4:30 AM52 °FMostly cloudy.16 mph77%29.65 "HgN/A
4:00 AM54 °FOvercast.16 mph72%29.68 "HgN/A
3:30 AM52 °FLight rain. Overcast.9 mph82%29.65 "HgN/A
3:00 AM52 °FRain. Overcast.24 mph82%29.65 "Hg5 mi
2:30 AM57 °FLight rain. Mostly cloudy.10 mph88%29.59 "Hg2 mi
2:00 AM57 °FDrizzle. Mostly cloudy.8 mph88%29.59 "HgN/A
1:30 AM57 °FLight rain. Partly cloudy.7 mph94%29.59 "Hg4 mi
1:00 AM57 °FRain. Partly cloudy.7 mph88%29.62 "Hg1 mi
12:30 AM57 °FLight rain. Passing clouds.5 mph94%29.62 "Hg1 mi
12:00 AM59 °FMostly cloudy.5 mph88%29.65 "Hg4 mi
11:30 PM
Oct 21
59 °FLow clouds.8 mph88%29.68 "Hg5 mi
11:00 PM59 °FLow clouds.9 mph88%29.68 "HgN/A
10:30 PM57 °FMostly cloudy.5 mph88%29.68 "HgN/A
10:00 PM57 °FPartly cloudy.3 mph82%29.71 "HgN/A
9:30 PM57 °FPartly cloudy.2 mph82%29.71 "HgN/A
9:00 PM57 °FPartly cloudy.6 mph82%29.74 "HgN/A
8:30 PM59 °FPassing clouds.6 mph77%29.74 "HgN/A
8:00 PM55 °FClear.3 mph82%29.74 "Hg10 mi
7:30 PM55 °FClear.No wind82%29.77 "Hg10 mi
7:00 PM57 °FClear.2 mph77%29.77 "Hg10 mi
6:30 PM57 °FSunny.5 mph77%29.77 "Hg10 mi
6:00 PM59 °FSunny.5 mph72%29.77 "Hg10 mi
5:30 PM61 °FPassing clouds.5 mph68%29.77 "HgN/A
5:00 PM63 °FPassing clouds.2 mph64%29.80 "HgN/A
4:30 PM64 °FScattered clouds.3 mph60%29.80 "HgN/A
4:00 PM64 °FScattered clouds.6 mph56%29.80 "HgN/A
3:30 PM64 °FScattered clouds.3 mph56%29.83 "HgN/A
3:00 PM63 °FScattered clouds.6 mph64%29.86 "HgN/A
2:30 PM63 °FPassing clouds.7 mph64%29.83 "HgN/A
2:00 PM63 °FPassing clouds.8 mph68%29.86 "HgN/A
1:30 PM61 °FPassing clouds.8 mph68%29.86 "HgN/A
1:00 PM63 °FPassing clouds.8 mph64%29.89 "HgN/A
12:30 PM61 °FScattered clouds.3 mph77%29.89 "HgN/A
12:00 PM61 °FScattered clouds.2 mph72%29.89 "HgN/A
11:30 AM59 °FScattered clouds.2 mph82%29.92 "HgN/A
11:00 AM61 °FScattered clouds.1 mph88%29.89 "Hg6 mi
10:30 AM57 °FScattered clouds.1 mph94%29.89 "Hg4 mi
10:00 AM55 °FFog.2 mph100%29.89 "Hg1 mi
Weather by CustomWeather, © 2014

See weather overviewHow to use our weather pages